Location: Freistadt
(48.5112°N, 14.5013°E)
Time: 20:52:11
(UTC+02:00)

VELOX 1 - Pass Details

Date: 28 February 2024
Orbit: 607 x 620 km, 98.4° (Epoch: 13 April)

Event Time Altitude Azimuth Distance (km) Brightness Sun altitude
Rises 21:38:33 0° 357° (N) 2,882 ? -37.8°
Reaches altitude 10° 21:42:01 10° 326° (NNW) 1,969 ? -38.3°
Maximum altitude 21:43:38 12° 304° (NW) 1,836 ? -38.5°
Enters shadow 21:44:17 12° 295° (WNW) 1,856 ? -38.5°
